Location: Newark
(50.4348°N, 30.5552°E)
Time: 11:21:19
(UTC+00:00)

Transit 2A Rocket - Pass Details

Date: 01 February 2020
Orbit: 591 x 912 km, 66.7° (Epoch: 25 February)

Event Time Altitude Azimuth Distance (km) Brightness Sun altitude
Exits shadow 02:46:00 29° 13° (NNE) 1,138 6.0 -26.7°
Drops below altitude 10° 02:48:24 10° 30° (NNE) 1,995 7.6 -26.4°
Sets 02:50:48 0° 36° (NE) 2,942 8.6 -26.0°
